| time (UTC) | temp F | wind direction | speed knots | gust knots | rain 1hr in | rain 24hr in | rain mn in | humidity % | barometer mb |
| 20260506040803 | 53 | 64 | 0.0 | 0.9 | 0.00 | 0.11 | 0.04 | 93 | 1018.0 |
| 20260506040303 | 53 | 62 | 0.9 | 2.6 | 0.00 | 0.11 | 0.04 | 93 | 1018.0 |
| 20260506030803 | 53 | 63 | 0.9 | 2.6 | 0.00 | 0.11 | 0.04 | 94 | 1018.0 |
| 20260506030303 | 53 | 73 | 0.9 | 2.6 | 0.01 | 0.11 | 0.04 | 94 | 1018.0 |
| 20260506020803 | 53 | 73 | 0.9 | 2.6 | 0.02 | 0.11 | 0.04 | 94 | 1018.1 |
| 20260506020303 | 53 | 82 | 0.9 | 2.6 | 0.01 | 0.10 | 0.03 | 94 | 1018.1 |
| 20260506010804 | 53 | 170 | 0.0 | 1.7 | 0.01 | 0.10 | 0.03 | 94 | 1018.1 |
| 20260506010304 | 53 | 195 | 0.0 | 1.7 | 0.01 | 0.10 | 0.03 | 94 | 1018.1 |
| 20260506000803 | 54 | 252 | 0.0 | 1.7 | 0.01 | 0.09 | 0.02 | 93 | 1018.1 |
| 20260506000303 | 54 | 268 | 0.9 | 2.6 | 0.01 | 0.09 | 0.02 | 93 | 1018.1 |
| 20260505230803 | 54 | 69 | 0.0 | 1.7 | 0.00 | 0.08 | 0.01 | 93 | 1018.1 |
| 20260505230304 | 54 | 69 | 0.0 | 1.7 | 0.01 | 0.08 | 0.01 | 93 | 1018.1 |
| 20260505220804 | 54 | 98 | 0.0 | 0.9 | 0.02 | 0.08 | 0.01 | 92 | 1018.1 |
| 20260505220304 | 54 | 98 | 0.0 | 2.6 | 0.01 | 0.07 | 0.00 | 92 | 1018.1 |
| 20260505210303 | 54 | 153 | 0.9 | 2.6 | 0.00 | 0.06 | 0.06 | 90 | 1018.1 |
| 20260505200804 | 56 | 276 | 0.0 | 0.9 | 0.00 | 0.06 | 0.06 | 87 | 1018.1 |
| 20260505200304 | 55 | 281 | 0.0 | 0.9 | 0.00 | 0.06 | 0.06 | 87 | 1018.1 |
| 20260505190803 | 56 | 275 | 0.0 | 0.9 | 0.00 | 0.06 | 0.06 | 85 | 1018.1 |
| 20260505190304 | 56 | 275 | 0.9 | 2.6 | 0.00 | 0.06 | 0.06 | 84 | 1018.1 |
| 20260505180304 | 57 | 267 | 1.7 | 4.3 | 0.00 | 0.06 | 0.06 | 82 | 1018.2 |
| 20260505170804 | 58 | 253 | 1.7 | 2.6 | 0.00 | 0.06 | 0.06 | 81 | 1018.2 |
| 20260505170304 | 58 | 263 | 0.9 | 5.2 | 0.00 | 0.06 | 0.06 | 82 | 1018.2 |
| 20260505150302 | 58 | 247 | 0.9 | 5.2 | 0.00 | 0.06 | 0.06 | 78 | 1018.2 |
| 20260505140302 | 58 | 245 | 0.9 | 2.6 | 0.00 | 0.06 | 0.06 | 80 | 1018.3 |
| 20260505120802 | 57 | 234 | 0.0 | 2.6 | 0.00 | 0.05 | 0.05 | 85 | 1018.4 |
| 20260505120303 | 57 | 248 | 1.7 | 4.3 | 0.00 | 0.05 | 0.05 | 85 | 1018.4 |
| 20260505110803 | 57 | 240 | 2.6 | 2.6 | 0.01 | 0.05 | 0.05 | 85 | 1018.4 |
| 20260505110302 | 56 | 228 | 0.9 | 2.6 | 0.01 | 0.05 | 0.05 | 85 | 1018.4 |
| 20260505100303 | 56 | 225 | 0.9 | 6.1 | 0.02 | 0.04 | 0.04 | 83 | 1018.5 |
| 20260505090802 | 54 | 220 | 0.9 | 0.9 | 0.03 | 0.03 | 0.03 | 82 | 1018.5 |
| 20260505090303 | 55 | 235 | 0.0 | 5.2 | 0.03 | 0.03 | 0.03 | 83 | 1018.5 |
| 20260505080803 | 55 | 231 | 0.9 | 2.6 | 0.00 | 0.00 | 0.00 | 74 | 1018.4 |
| 20260505080303 | 55 | 273 | 1.7 | 7.0 | 0.00 | 0.00 | 0.00 | 73 | 1018.5 |
| 20260505070803 | 56 | 270 | 5.2 | 5.2 | 0.00 | 0.00 | 0.00 | 71 | 1018.5 |
| 20260505070303 | 56 | 249 | 1.7 | 2.6 | 0.00 | 0.00 | 0.00 | 71 | 1018.5 |
| 20260505060303 | 55 | 89 | 1.7 | 2.6 | 0.00 | 0.00 | 0.00 | 67 | 1018.5 |
| 20260505050803 | 56 | 342 | 0.0 | 0.9 | 0.00 | 0.00 | 0.00 | 67 | 1018.5 |
| 20260505050303 | 56 | 52 | 0.9 | 2.6 | 0.00 | 0.00 | 0.00 | 65 | 1018.5 |